Ithaca, NY

3:50 PM EDT on March 27, 2017 (GMT -0400)
Tompkins County

Weather History for KITH - April, 2014

Change the Weather History Date:

Thursday, April 3, 2014

  Actual Average Record
Temperature  
Mean Temperature 35 °F -  
Max Temperature 45 °F 48 °F 80 °F (1963)
Min Temperature 25 °F 31 °F 14 °F (1954)
Degree Days  
Heating Degree Days 30    
Moisture  
Dew Point 26 °F    
Average Humidity 74    
Maximum Humidity 96    
Minimum Humidity 50    
Precipitation  
Precipitation 0.00 in - - ()
Sea Level Pressure  
Sea Level Pressure 30.18 in    
Wind  
Wind Speed 3 mph (NW)    
Max Wind Speed 8 mph    
Max Gust Speed -    
Visibility 10 miles    
Events      
Averages and records for this station are not official NWS values.
T = Trace of Precipitation, MM = Missing Value Source: NWS Daily Summary

Daily Weather History Graph

Daily Weather History Graph

Search for Another Location

Airport or City:

Trip Planner

Search our weather history database for the weather conditions in past years. The results will help you decide how hot, cold, wet, or windy it might be!

Date:

Astronomy

Apr. 03, 2014 Rise Set
Actual Time 6:44 AM EDT 7:34 PM EDT
Civil Twilight 6:16 AM EDT 8:02 PM EDT
Nautical Twilight 5:42 AM EDT 8:36 PM EDT
Astronomical Twilight 5:07 AM EDT 9:11 PM EDT
Moon 9:08 AM EDT (4/3) 11:55 PM EDT (4/3)
Length of Visible Light 13h 46m
Length of Day
12h 49m
Waxing Crescent, 17% of the Moon is Illuminated
Apr 3
Waxing Crescent
Apr 7
First Quarter
Apr 15
Full
Apr 22
Last Quarter
Apr 29
New

Hourly Weather History & Observations

Time (EDT) Temp. Windchill Dew Point Humidity Pressure Visibility Wind Dir Wind Speed Gust Speed Precip Events Conditions
12:56 AM 27.1 °F - 26.1 °F 96% 30.22 in 9.0 mi Calm Calm - N/A   Clear
1:56 AM 25.2 °F - 24.1 °F 96% 30.21 in 10.0 mi Calm Calm - N/A   Clear
2:56 AM 27.1 °F 23.2 °F 25.2 °F 92% 30.20 in 10.0 mi North 3.5 mph - N/A   Clear
3:56 AM 30.0 °F 25.2 °F 26.1 °F 85% 30.19 in 10.0 mi North 4.6 mph - N/A   Clear
4:56 AM 27.1 °F 21.8 °F 24.1 °F 88% 30.21 in 10.0 mi NW 4.6 mph - N/A   Clear
5:56 AM 26.1 °F 21.9 °F 23.0 °F 88% 30.22 in 10.0 mi NW 3.5 mph - N/A   Clear
6:18 AM 26.6 °F 22.6 °F 24.8 °F 93% 30.19 in 10.0 mi NNW 3.5 mph - N/A   Clear
6:56 AM 26.1 °F 21.9 °F 24.1 °F 92% 30.22 in 10.0 mi North 3.5 mph - N/A   Clear
7:56 AM 29.1 °F 25.4 °F 25.2 °F 85% 30.24 in 10.0 mi NW 3.5 mph - N/A   Clear
8:56 AM 31.1 °F 25.4 °F 24.1 °F 75% 30.25 in 10.0 mi NNW 5.8 mph - N/A   Partly Cloudy
9:56 AM 34.0 °F 28.0 °F 25.2 °F 70% 30.24 in 10.0 mi North 6.9 mph - N/A   Partly Cloudy
10:56 AM 36.9 °F 33.1 °F 25.2 °F 63% 30.24 in 10.0 mi WSW 4.6 mph - N/A   Clear
11:56 AM 38.8 °F 33.8 °F 25.2 °F 58% 30.20 in 10.0 mi WNW 6.9 mph - N/A   Clear
12:56 PM 41.0 °F - 26.1 °F 55% 30.20 in 10.0 mi Calm Calm - N/A   Clear
1:56 PM 41.9 °F 37.5 °F 27.1 °F 56% 30.18 in 10.0 mi NW 6.9 mph - N/A   Clear
2:56 PM 43.9 °F 39.9 °F 28.0 °F 54% 30.16 in 10.0 mi NW 6.9 mph - N/A   Clear
3:56 PM 43.9 °F 41.3 °F 28.0 °F 54% 30.13 in 10.0 mi WNW 4.6 mph - N/A   Clear
4:56 PM 45.0 °F 43.5 °F 27.1 °F 50% 30.10 in 10.0 mi Variable 3.5 mph - N/A   Clear
5:56 PM 41.9 °F 36.9 °F 29.1 °F 61% 30.09 in 10.0 mi NW 8.1 mph - N/A   Clear
6:56 PM 43.0 °F - 28.0 °F 56% 30.08 in 10.0 mi Calm Calm - N/A   Clear
7:56 PM 37.9 °F - 29.1 °F 71% 30.07 in 10.0 mi Calm Calm - N/A   Clear
8:56 PM 37.9 °F 34.4 °F 30.0 °F 73% 30.10 in 10.0 mi WNW 4.6 mph - N/A   Overcast
9:56 PM 36.9 °F - 31.1 °F 80% 30.09 in 10.0 mi Calm Calm - N/A   Overcast